Wind_Speed
21 20 19 19 18 17 17 15 13 12 12 11 11 12 12 13 12 12 12 12 11 11 11 10 9 10 10 10 11 12 12 12 13 14 14 13 14 13 11 10 8 8 8
20 20 19 19 18 18 17 16 16 16 15 15 13 12 13 15 15 15 14 14 15 15 13 12 12 12 13 13 14 14 15 15 16 17 18 15 17 17 14 13 13 10 13
19 22 21 22 21 20 19 17 17 17 18 17 17 16 16 16 16 17 18 18 18 17 17 16 17 16 15 16 17 17 18 18 18 18 20 20 20 20 19 17 15 14 13
23 22 22 22 21 19 18 18 18 18 19 19 19 18 18 18 19 19 19 20 20 20 20 20 21 20 19 19 18 18 18 18 20 20 21 22 22 23 23 23 21 21 14
27 26 25 23 22 21 20 19 19 18 18 18 17 17 17 19 18 21 22 22 23 24 23 23 24 22 22 21 22 22 21 21 22 23 23 24 24 24 23 24 24 22 24
31 30 29 28 26 25 23 22 21 21 22 21 20 21 21 19 21 22 21 24 25 24 26 26 26 25 24 23 23 25 25 26 26 26 26 27 26 27 25 26 26 23 24
35 33 31 29 28 26 25 25 25 25 25 26 26 25 25 24 26 23 25 26 27 27 26 27 27 27 24 24 25 24 26 27 30 31 31 31 30 31 32 32 31 31 29
38 36 33 31 30 29 29 28 27 28 30 31 31 30 30 29 31 29 29 30 31 32 34 32 32 32 27 25 28 28 28 27 31 35 34 35 34 33 35 33 36 37 37
37 34 34 32 29 29 32 28 31 33 33 34 36 35 33 31 35 35 33 33 34 35 37 38 37 35 34 34 33 33 34 36 41 40 41 41 38 37 38 38 38 41 43
37 33 35 39 39 33 33 29 31 32 36 38 40 42 41 34 38 37 40 40 38 40 44 40 37 36 36 36 41 39 41 45 48 45 45 45 43 42 40 40 41 45 48
38 43 37 34 35 36 32 29 30 35 35 38 41 45 46 44 50 45 41 43 43 38 41 43 42 40 43 44 42 39 36 37 39 40 41 40 42 45 47 48 48 48 50
34 34 32 23 22 22 33 33 29 31 30 31 26 31 38 43 46 44 45 46 50 51 47 46 43 44 40 41 44 44 46 46 42 43 43 44 46 48 48 51 52 53 53
16 15 17 19 18 17 20 22 26 23 21 26 30 27 27 27 34 36 36 36 39 41 44 45 44 45 46 45 43 45 48 50 48 46 39 44 45 44 44 45 46 50 51
21 23 26 24 23 23 22 23 20 22 23 23 34 24 24 11 21 27 32 22 21 22 25 25 30 33 35 34 38 39 39 40 44 40 40 40 37 38 41 43 41 45 48
25 24 22 24 25 26 26 22 22 21 18 27 30 28 31 33 33 25 25 29 33 29 35 33 35 34 37 38 37 35 37 40 44 45 46 45 45 47 47 46 49 51 53
24 23 23 27 28 28 28 27 27 24 22 24 26 29 28 28 27 30 33 37 36 36 35 35 37 40 42 42 43 43 45 47 49 51 53 54 53 51 51 51 50 52 51
28 27 25 25 27 29 31 31 34 34 34 31 31 32 32 34 33 34 36 38 39 39 39 40 42 44 46 49 51 52 52 54 55 55 56 57 58 59 61 60 60 62 55
38 38 37 36 35 37 35 35 34 34 35 34 33 33 34 35 36 37 37 39 41 42 43 44 45 46 47 47 47 49 53 54 55 59 64 63 63 64 63 61 61 63 65
35 35 36 36 31 29 29 28 27 29 30 32 31 30 30 30 30 31 32 34 35 36 38 40 42 43 45 46 48 51 53 55 56 58 58 60 61 62 62 63 64 66 66
21 21 22 24 25 27 28 28 29 29 27 27 29 29 31 33 34 34 34 34 34 37 40 42 44 47 48 50 51 53 56 58 60 63 65 65 64 64 64 64 63 61 59
24 23 23 23 25 25 25 26 26 28 29 32 33 33 35 35 37 37 38 40 44 48 49 50 51 53 54 56 58 59 61 63 65 67 69 68 63 61 57 56 55 54 52
21 23 24 25 25 25 27 29 31 34 37 38 39 38 40 42 43 44 46 49 50 52 52 53 55 56 58 60 62 64 64 66 66 67 67 64 58 55 53 51 49 48 48
24 25 26 27 29 32 34 36 38 39 41 42 43 46 46 44 46 49 51 54 57 58 58 57 58 58 59 59 60 61 62 62 60 57 53 50 50 48 46 44 43 42 41
31 32 34 36 36 38 40 41 42 43 43 44 45 46 48 52 56 57 58 60 60 60 59 58 59 58 58 58 58 58 57 56 53 48 49 49 49 45 43 41 38 37 38
34 36 37 39 40 40 40 39 41 44 45 48 51 52 52 54 58 59 60 60 60 60 59 57 58 57 57 57 56 56 54 51 49 48 43 42 48 47 39 36 37 38 41
33 33 34 34 34 34 37 39 42 45 48 49 51 55 55 57 58 59 59 59 58 58 56 56 56 57 54 52 53 51 51 51 51 51 46 42 36 34 35 36 37 38 37
Wind_Direction
208 205 205 209 208 207 208 206 210 221 231 233 232 232 231 228 229 230 225 228 229 234 239 244 249 254 263 269 275 281 288 292 294 299 298 305 310 314 318 323 315 318 314
213 211 209 211 217 217 218 217 217 219 222 229 234 234 237 237 235 237 237 232 232 234 241 251 257 261 265 266 269 279 283 287 290 295 296 298 303 304 305 306 307 303 301
213 212 211 212 215 219 220 225 224 229 231 235 234 235 236 241 243 245 251 256 257 255 255 256 257 254 259 265 273 276 280 283 284 286 288 288 288 292 295 298 297 294 294
217 219 217 216 217 217 216 220 225 229 233 237 241 243 242 243 246 250 253 253 255 260 263 263 268 270 271 270 269 270 275 281 282 282 282 284 288 290 296 294 291 291 279
221 220 221 224 224 224 225 226 226 228 234 240 245 246 245 248 253 254 255 258 257 258 259 259 258 262 266 273 278 281 281 281 283 284 283 286 289 289 289 290 292 293 298
229 228 227 228 230 232 234 236 240 242 244 244 242 246 250 249 251 256 257 260 265 266 265 265 265 263 265 270 274 279 283 284 283 284 286 290 289 289 288 288 288 289 290
237 237 237 236 239 245 247 249 249 248 251 256 256 254 256 258 256 258 263 266 267 271 273 275 278 268 263 273 277 278 285 286 286 285 286 284 283 282 285 284 283 286 289
237 239 244 246 245 247 250 254 257 256 256 257 257 260 257 257 262 261 264 266 265 277 277 276 274 277 279 272 272 275 276 280 284 284 279 280 279 274 274 276 282 277 282
239 244 247 247 250 252 253 251 259 263 264 264 265 258 258 258 259 262 261 261 264 269 272 275 273 274 272 271 275 276 275 274 283 284 278 274 275 276 276 274 274 277 280
232 237 245 245 236 237 251 258 260 263 259 263 264 255 263 259 267 257 262 264 262 267 266 264 269 272 271 273 277 275 275 273 281 277 281 271 267 270 273 273 275 276 278
220 248 235 233 234 247 254 261 268 269 264 273 269 266 267 264 267 269 258 264 261 265 268 263 268 269 273 269 270 273 276 281 273 273 283 275 270 270 274 277 280 279 279
230 233 233 247 248 255 260 256 266 264 261 265 269 265 267 262 265 266 261 270 264 260 265 260 260 266 267 271 274 274 276 277 276 273 279 274 271 270 276 277 277 277 280
245 252 249 247 242 256 262 250 267 265 267 251 262 264 265 261 264 269 272 273 267 257 259 265 265 267 268 273 272 271 272 272 262 265 266 266 270 274 280 283 279 276 275
239 240 241 242 242 245 248 260 267 251 262 258 250 248 268 276 301 270 273 258 294 282 274 274 271 260 264 269 268 263 261 259 260 260 265 271 273 278 283 279 278 274 275
239 243 244 249 250 252 252 253 251 240 239 244 258 267 271 282 298 281 276 267 288 274 276 280 275 270 272 276 279 279 277 277 276 276 279 281 278 278 279 277 277 277 280
233 238 246 252 253 252 255 255 250 257 269 273 267 263 270 266 258 259 263 270 270 273 273 275 273 276 278 279 277 277 277 278 279 280 280 281 282 282 281 279 281 280 278
242 246 248 255 258 258 256 253 259 269 273 272 269 263 265 269 271 270 269 273 276 275 277 273 279 284 284 280 281 284 284 281 281 280 279 279 279 279 279 280 279 280 279
246 251 256 262 265 259 261 259 258 261 265 269 272 274 272 273 274 275 276 278 278 281 283 284 284 285 288 287 287 287 286 284 283 278 282 286 286 285 285 286 286 286 285
257 258 261 264 267 265 266 269 273 275 279 281 282 278 280 278 277 278 281 282 282 282 282 284 286 287 288 289 289 289 287 287 286 285 283 283 283 284 284 284 284 283 284
264 265 266 269 272 273 273 275 277 277 275 273 275 277 278 281 280 279 279 280 283 287 289 289 288 288 288 287 288 290 290 290 290 289 287 285 283 282 282 282 283 284 285
269 270 270 266 263 262 263 265 268 270 273 276 278 279 280 279 280 281 283 286 288 290 292 291 289 286 285 285 286 287 288 288 287 286 285 286 285 286 285 285 285 285 285
266 264 264 263 263 267 272 276 279 281 283 283 279 279 288 288 286 286 287 288 290 291 291 291 289 288 288 286 285 284 283 281 279 280 282 285 286 286 286 285 281 281 281
259 259 260 263 266 269 274 279 280 281 283 285 283 284 283 282 285 287 289 291 293 293 293 292 291 289 286 282 280 280 280 281 285 288 289 285 284 282 280 277 276 277 279
259 261 265 268 270 273 275 276 277 280 282 284 284 283 284 288 290 291 291 291 292 294 294 292 289 285 283 280 279 280 282 284 286 286 283 283 281 275 271 271 275 279 283
270 271 271 273 274 275 277 278 280 282 283 284 285 288 289 291 293 292 292 294 294 293 290 287 283 281 279 279 280 282 283 284 283 282 284 286 282 272 272 281 285 287 286
272 273 275 277 278 279 282 284 286 287 287 288 289 291 292 292 292 292 293 292 291 289 286 282 279 278 278 280 281 280 278 276 279 285 289 289 287 287 282 280 279 281 282
Height
5917 5920 5923 5926 5928 5931 5933 5935 5937 5938 5939 5940 5942 5943 5945 5946 5946 5947 5948 5949 5950 5951 5953 5953 5953 5952 5952 5952 5953 5952 5952 5951 5950 5950 5950 5950 5949 5948 5947 5946 5945 5944 5941
5915 5918 5920 5924 5926 5928 5930 5933 5935 5936 5937 5938 5939 5940 5941 5943 5944 5945 5947 5947 5948 5948 5949 5950 5951 5951 5951 5950 5950 5950 5950 5949 5949 5948 5947 5947 5946 5946 5945 5944 5942 5941 5939
5912 5915 5918 5920 5922 5925 5927 5930 5932 5934 5935 5936 5937 5938 5939 5940 5942 5943 5943 5944 5945 5945 5946 5946 5947 5947 5947 5947 5947 5947 5947 5946 5946 5945 5944 5943 5943 5942 5941 5940 5939 5939 5938
5908 5912 5914 5916 5919 5922 5925 5927 5929 5930 5932 5933 5935 5936 5937 5938 5939 5940 5941 5941 5942 5942 5942 5942 5942 5942 5943 5943 5943 5943 5943 5943 5942 5942 5941 5940 5939 5938 5937 5936 5935 5932 5934
5904 5907 5910 5914 5916 5918 5920 5923 5925 5927 5928 5930 5931 5933 5934 5935 5936 5936 5936 5937 5938 5938 5937 5938 5937 5938 5937 5938 5938 5938 5938 5937 5937 5936 5936 5935 5934 5933 5933 5931 5930 5929 5927
5901 5903 5906 5909 5912 5915 5917 5919 5921 5922 5924 5925 5927 5927 5928 5930 5931 5931 5932 5932 5933 5933 5934 5933 5933 5932 5932 5932 5933 5933 5933 5932 5931 5931 5930 5929 5928 5927 5926 5925 5923 5923 5923
5895 5899 5903 5906 5909 5912 5914 5915 5917 5918 5920 5920 5921 5922 5923 5925 5924 5926 5927 5927 5927 5928 5928 5927 5927 5926 5926 5927 5926 5926 5926 5926 5925 5924 5923 5922 5921 5921 5920 5919 5918 5915 5915
5890 5895 5899 5902 5904 5906 5907 5909 5911 5912 5912 5913 5914 5915 5917 5919 5919 5919 5920 5920 5921 5921 5921 5921 5920 5919 5918 5917 5919 5919 5919 5920 5918 5917 5917 5915 5914 5913 5911 5911 5910 5908 5906
5883 5889 5892 5894 5896 5899 5901 5901 5903 5905 5906 5906 5907 5908 5906 5909 5911 5912 5912 5911 5914 5913 5912 5912 5911 5911 5911 5911 5911 5912 5911 5912 5909 5908 5907 5907 5906 5904 5903 5902 5901 5899 5898
5876 5879 5883 5885 5887 5888 5891 5892 5895 5896 5898 5898 5898 5899 5898 5900 5901 5903 5903 5902 5904 5903 5902 5904 5903 5903 5903 5902 5902 5903 5901 5901 5899 5896 5895 5894 5894 5894 5894 5892 5891 5890 5886
5869 5872 5874 5876 5879 5882 5884 5886 5887 5887 5888 5888 5888 5887 5888 5890 5892 5891 5892 5893 5893 5893 5893 5894 5893 5892 5892 5892 5891 5891 5892 5889 5887 5885 5884 5884 5884 5883 5882 5882 5880 5878 5875
5860 5864 5865 5867 5870 5873 5876 5878 5877 5876 5876 5876 5876 5876 5877 5876 5878 5879 5880 5880 5881 5883 5883 5883 5882 5882 5881 5880 5879 5879 5880 5879 5877 5875 5874 5873 5873 5872 5870 5868 5867 5864 5862
5854 5856 5860 5862 5863 5866 5867 5868 5869 5868 5868 5867 5867 5867 5867 5867 5867 5869 5870 5870 5868 5867 5870 5871 5872 5870 5870 5869 5868 5867 5867 5866 5864 5863 5862 5860 5859 5858 5857 5856 5854 5852 5849
5850 5853 5855 5856 5857 5859 5860 5861 5861 5861 5861 5861 5861 5860 5860 5859 5861 5861 5860 5859 5860 5859 5860 5859 5859 5858 5858 5857 5857 5856 5855 5855 5853 5851 5849 5849 5848 5846 5845 5844 5841 5839 5838
5846 5848 5848 5851 5853 5854 5855 5855 5854 5854 5854 5856 5855 5853 5854 5855 5854 5855 5854 5853 5852 5852 5852 5852 5851 5850 5849 5849 5847 5846 5845 5844 5842 5841 5840 5837 5836 5835 5832 5829 5828 5826 5824
5840 5842 5843 5844 5846 5848 5850 5849 5847 5848 5848 5849 5848 5848 5847 5847 5846 5846 5846 5846 5844 5844 5843 5842 5842 5841 5840 5839 5838 5836 5835 5834 5832 5830 5828 5826 5823 5821 5819 5817 5813 5809 5807
5835 5837 5838 5839 5840 5840 5841 5843 5842 5841 5841 5841 5842 5841 5841 5841 5840 5839 5837 5836 5835 5834 5833 5832 5830 5829 5828 5827 5826 5824 5822 5821 5818 5815 5814 5812 5809 5806 5804 5801 5799 5796 5793
5828 5829 5831 5833 5833 5833 5834 5835 5835 5833 5833 5833 5833 5833 5833 5832 5831 5831 5829 5827 5826 5824 5823 5822 5820 5819 5816 5814 5812 5809 5808 5806 5804 5802 5800 5796 5793 5790 5787 5784 5781 5779 5776
5821 5822 5823 5824 5824 5825 5825 5825 5825 5825 5825 5825 5824 5823 5823 5822 5821 5819 5818 5817 5816 5814 5812 5810 5807 5806 5804 5801 5798 5796 5794 5792 5789 5787 5783 5780 5776 5773 5769 5766 5764 5761 5757
5813 5814 5815 5816 5816 5817 5817 5817 5816 5816 5816 5816 5815 5815 5813 5813 5811 5810 5808 5806 5803 5802 5800 5797 5795 5792 5790 5786 5784 5780 5777 5774 5771 5768 5764 5761 5758 5754 5751 5749 5746 5743 5739
5806 5806 5807 5808 5808 5808 5809 5809 5808 5808 5808 5807 5805 5804 5803 5801 5800 5798 5796 5795 5791 5789 5787 5783 5781 5778 5776 5772 5768 5765 5762 5757 5753 5748 5743 5741 5738 5736 5732 5730 5729 5726 5723
5798 5799 5799 5800 5801 5801 5801 5800 5800 5799 5797 5796 5794 5794 5791 5788 5786 5784 5783 5780 5778 5774 5772 5767 5764 5761 5757 5753 5749 5745 5740 5735 5733 5728 5726 5724 5721 5719 5716 5714 5713 5710 5708
5792 5793 5793 5793 5793 5793 5792 5790 5789 5788 5786 5784 5782 5780 5779 5777 5774 5770 5768 5764 5761 5756 5752 5748 5744 5740 5735 5730 5726 5723 5720 5718 5714 5711 5710 5708 5705 5704 5701 5699 5698 5695 5694
5785 5785 5784 5783 5784 5782 5781 5780 5778 5777 5775 5772 5770 5767 5764 5761 5757 5753 5750 5745 5742 5738 5732 5727 5722 5717 5713 5709 5707 5705 5702 5699 5698 5696 5694 5692 5691 5688 5687 5685 5684 5683 5681
5775 5774 5773 5772 5772 5771 5770 5768 5766 5765 5762 5759 5755 5752 5748 5743 5740 5735 5730 5725 5720 5717 5712 5708 5702 5699 5695 5692 5690 5688 5686 5685 5683 5682 5680 5678 5677 5675 5674 5673 5672 5670 5668
5765 5764 5763 5762 5761 5760 5758 5756 5753 5750 5746 5743 5740 5735 5732 5727 5722 5717 5711 5704 5700 5695 5691 5688 5685 5681 5679 5678 5675 5674 5673 5671 5670 5668 5667 5666 5665 5663 5661 5660 5658 5657 5656